Weather Roundup
Issued by NWS Springfield, MO

Home | Current Version | Previous Version | Text Only | Print | Product List | Glossary On
Versions: 1 2 3 4 5 6 7 8 9 10 11 12 13 14 15 16 17 18 19 20 21 22 23 24 25 26 27 28 29 30 31 32 33 34 35 36 37 38 39 40 41 42 43 44 45 46 47 48 49 50
000
NZUS99 KSGF 202307
HRRSGF

HOURLY WEATHER
NATIONAL WEATHER SERVICE SPRINGFIELD MO
600 PM CDT WED AUG 20 2014

......SGF CWA......

CITY           SKY/WX    TMP DP  RH WIND       PRES   REMARKS
SPRINGFIELD    PTSUNNY   92  62  36 SW21      29.94F HX  92
JOPLIN         SUNNY     91  65  41 S18       29.91F HX  93
WEST PLAINS    MOSUNNY   92  65  40 SW9       29.97F HX  94
ROLLA          LGT RAIN  74  69  85 N9        29.93F
OSAGE BEACH    PTSUNNY   84  66  54 S6        29.91F
BRANSON        PTSUNNY   90  57  33 SW9       29.99S

......SURROUNDING SGF CWA......

CITY           SKY/WX    TMP DP  RH WIND       PRES   REMARKS
CHANUTE        SUNNY     93  62  35 S20       29.87S HX  93
PARSONS        SUNNY     91  66  43 S14G23    29.88F HX  93
COFFEYVILLE    SUNNY     91  68  46 S17G26    29.87F HX  95
EMPORIA        MOSUNNY   93  69  45 S20G26    29.82F HX  98
GROVE OK       SUNNY     91  64  40 S9G16     29.93S HX  93
ROGERS AR      MOSUNNY   90  59  35 SW10      29.98F
SILOAM SPRINGS MOSUNNY   88  64  45 S10G16    29.97S
HARRISON AR    MOSUNNY   87  64  46 S6        29.99F
NEAR YELLVILLE   N/A     91  57  31 SW10      29.96F HX  90

......KANSAS AND MISSOURI......

CITY           SKY/WX    TMP DP  RH WIND       PRES   REMARKS
KANSAS CTY INT MOSUNNY   91  73  55 S13       29.84S HX  99
DOWNTOWN KC    MOSUNNY   92  70  48 S10       29.82F HX  97
COLUMBIA       MOSUNNY   89  72  56 S6        29.89F HX  96
SEDALIA        MOSUNNY   91  73  55 S10G18    29.89F HX  99
ST JOSEPH      PTSUNNY   91  75  59 SE9       29.82F HX 101
ST LOUIS       MOSUNNY   87  73  62 SE12      29.93F HX  94
SPIRIT OF STL  MOSUNNY   87  75  67 SE9       29.90S HX  96
KIRKSVILLE     SUNNY     87  74  64 S9        29.90F HX  95
WICHITA        MOSUNNY   94  66  39 S23G32    29.80S HX  97
TOPEKA         SUNNY     95  69  42 S13G23    29.80S HX 100
OLATHE         MOSUNNY   90  70  51 S12G21    29.84F HX  95

......TENNESSEE......

CITY           SKY/WX    TMP DP  RH WIND       PRES   REMARKS
MEMPHIS        MOSUNNY   91  69  48 SW10      29.98F HX  96
NASHVILLE      TSTM      75  70  83 N16G23    30.06R

......ARKANSAS.......

CITY           SKY/WX    TMP DP  RH WIND       PRES   REMARKS
FAYETTEVILLE   SUNNY     87  63  44 S10       29.97F
FT SMITH       SUNNY     93  66  40 S7        29.92F HX  96
LITTLE ROCK    SUNNY     91  69  48 S10       29.97F HX  96

......OKLAHOMA.......

CITY           SKY/WX    TMP DP  RH WIND       PRES   REMARKS
TULSA          SUNNY     94  63  35 S22       29.85F HX  95
PONCA CITY     SUNNY     94  65  38 S17G28    29.82F HX  96
MCALESTER      SUNNY     91  70  49 S9        29.92F HX  96
OKLAHOMA CITY  MOSUNNY   95  63  34 S18G26    29.86F HX  96

......IOWA............

CITY           SKY/WX    TMP DP  RH WIND       PRES   REMARKS
DES MOINES     PTSUNNY   82  73  74 S7        29.85F
QUAD CITIES    CLOUDY    75  68  78 S5        29.89F

......ILLINOIS........

CITY           SKY/WX    TMP DP  RH WIND       PRES   REMARKS
QUINCY         SUNNY     85  76  74 S6        29.91F HX  94
CHICAGO        PTSUNNY   84  62  47 W12       29.87S



USA.gov is the U.S. government's official web portal to all federal, state and local government web resources and services.